C/2020 M5 ( ATLAS )

Japanese version
Home page
Updated on September 18, 2021

---------------------------------------------------------------------

* Profile

Discovery Date June 30, 2020
Magnitude 19.4 mag
Discoverer Asteroid Terrestrial-Impact Last Alert System (ATLAS) search program

* Pictures

* Orbital Elements

Epoch 2021 Aug. 14.0 TT = JDT 2459440.5
T 2021 Aug. 19.88085 TT                                 Rudenko
q   3.0043773            (2000.0)            P               Q
z  +0.0000042      Peri.  126.33879     -0.59315594     -0.79329072
 +/-0.0000008      Node   352.09481     -0.28629559     +0.36725271
e   0.9999873      Incl.   93.22280     +0.75246320     -0.48560816
From 498 observations 2019 Aug. 10-2021 Apr. 30, mean residual 0".6.

* Finding Charts

* Magnitudes Graph

        m1 = 5.5 + 5 log d + 15.0 log r

---------------------------------------------------------------------

The orbital elements are published on M.P.E.C. 2021-J28.
The charts are made with StellaNavigator Ver.10 (AstroArts).
The magnitudes graphs are made with Comet for Windows.

---------------------------------------------------------------------

Copyright(C) Seiichi Yoshida (comet@aerith.net). All rights reserved.